Year,Month,Day,Hour,Minute,Value (Times are PST for temperature in C)
2010,01,26,00,00,6.60
2010,01,26,00,01,6.60
2010,01,26,00,02,6.60
2010,01,26,00,03,6.60
2010,01,26,00,04,6.60
2010,01,26,00,05,6.50
2010,01,26,00,06,6.40
2010,01,26,00,07,6.40
2010,01,26,00,08,6.40
2010,01,26,00,09,6.40
2010,01,26,00,10,6.40
2010,01,26,00,11,6.40
2010,01,26,00,12,6.40
2010,01,26,00,13,6.40
2010,01,26,00,14,6.40
2010,01,26,00,15,6.40
2010,01,26,00,16,6.40
2010,01,26,00,17,6.40
2010,01,26,00,18,6.40
2010,01,26,00,19,6.40
2010,01,26,00,20,6.40
2010,01,26,00,21,6.40
2010,01,26,00,22,6.40
2010,01,26,00,23,6.40
2010,01,26,00,24,6.40
2010,01,26,00,25,6.40
2010,01,26,00,26,6.40
2010,01,26,00,27,6.40
2010,01,26,00,28,6.40
2010,01,26,00,29,6.40
2010,01,26,00,30,6.40
2010,01,26,00,31,6.40
2010,01,26,00,32,6.40
2010,01,26,00,33,6.40
2010,01,26,00,34,6.40
2010,01,26,00,35,6.40
2010,01,26,00,36,6.40
2010,01,26,00,37,6.40
2010,01,26,00,38,6.40
2010,01,26,00,39,6.40
2010,01,26,00,40,6.40
2010,01,26,00,41,6.40
2010,01,26,00,42,6.40
2010,01,26,00,43,6.40
2010,01,26,00,44,6.40
2010,01,26,00,45,6.30
2010,01,26,00,46,6.30
2010,01,26,00,47,6.30
2010,01,26,00,48,6.30
2010,01,26,00,49,6.30
2010,01,26,00,50,6.30
2010,01,26,00,51,6.30
2010,01,26,00,52,6.30
2010,01,26,00,53,6.30
2010,01,26,00,54,6.30
2010,01,26,00,55,6.30
2010,01,26,00,56,6.30
2010,01,26,00,57,6.30
2010,01,26,00,58,6.20
2010,01,26,00,59,6.20
2010,01,26,01,00,6.20
2010,01,26,01,01,6.20
2010,01,26,01,02,6.20
2010,01,26,01,03,6.20
2010,01,26,01,04,6.20
2010,01,26,01,05,6.20
2010,01,26,01,06,6.20
2010,01,26,01,07,6.20
2010,01,26,01,08,6.20
2010,01,26,01,09,6.20
2010,01,26,01,10,6.20
2010,01,26,01,11,6.20
2010,01,26,01,12,6.20
2010,01,26,01,13,6.20
2010,01,26,01,14,6.20
2010,01,26,01,15,6.20
2010,01,26,01,16,6.20
2010,01,26,01,17,6.20
2010,01,26,01,18,6.20
2010,01,26,01,19,6.20
2010,01,26,01,20,6.10
2010,01,26,01,21,6.10
2010,01,26,01,22,6.10
2010,01,26,01,23,6.10
2010,01,26,01,24,6.10
2010,01,26,01,25,6.10
2010,01,26,01,26,6.10
2010,01,26,01,27,6.10
2010,01,26,01,28,6.10
2010,01,26,01,29,6.10
2010,01,26,01,30,6.10
2010,01,26,01,31,6.10
2010,01,26,01,32,6.10
2010,01,26,01,33,6.10
2010,01,26,01,34,6.10
2010,01,26,01,35,6.10
2010,01,26,01,36,6.10
2010,01,26,01,37,6.10
2010,01,26,01,38,6.10
2010,01,26,01,39,6.10
2010,01,26,01,40,6.20
2010,01,26,01,41,6.20
2010,01,26,01,42,6.20
2010,01,26,01,43,6.20
2010,01,26,01,44,6.20
2010,01,26,01,45,6.20
2010,01,26,01,46,6.20
2010,01,26,01,47,6.20
2010,01,26,01,48,6.20
2010,01,26,01,49,6.20
2010,01,26,01,50,6.20
2010,01,26,01,51,6.20
2010,01,26,01,52,6.20
2010,01,26,01,53,6.10
2010,01,26,01,54,6.10
2010,01,26,01,55,6.10
2010,01,26,01,56,6.10
2010,01,26,01,57,6.10
2010,01,26,01,58,6.10
2010,01,26,01,59,6.10
2010,01,26,02,00,6.00
2010,01,26,02,01,6.00
2010,01,26,02,02,6.00
2010,01,26,02,03,6.00
2010,01,26,02,04,6.00
2010,01,26,02,05,6.00
2010,01,26,02,06,6.00
2010,01,26,02,07,6.00
2010,01,26,02,08,6.00
2010,01,26,02,09,6.00
2010,01,26,02,10,6.00
2010,01,26,02,11,6.00
2010,01,26,02,12,6.00
2010,01,26,02,13,6.00
2010,01,26,02,14,6.00
2010,01,26,02,15,6.00
2010,01,26,02,16,6.00
2010,01,26,02,17,6.00
2010,01,26,02,18,6.00
2010,01,26,02,19,5.90
2010,01,26,02,20,5.90
2010,01,26,02,21,5.90
2010,01,26,02,22,5.90
2010,01,26,02,23,5.90
2010,01,26,02,24,6.00
2010,01,26,02,25,6.00
2010,01,26,02,26,6.00
2010,01,26,02,27,6.00
2010,01,26,02,28,6.00
2010,01,26,02,29,6.00
2010,01,26,02,30,6.00
2010,01,26,02,31,5.90
2010,01,26,02,32,5.90
2010,01,26,02,33,5.90
2010,01,26,02,34,5.90
2010,01,26,02,35,5.90
2010,01,26,02,36,5.90
2010,01,26,02,37,5.90
2010,01,26,02,38,5.90
2010,01,26,02,39,5.80
2010,01,26,02,40,5.80
2010,01,26,02,41,5.90
2010,01,26,02,42,5.90
2010,01,26,02,43,5.90
2010,01,26,02,44,5.90
2010,01,26,02,45,5.90
2010,01,26,02,46,5.80
2010,01,26,02,47,5.80
2010,01,26,02,48,5.80
2010,01,26,02,49,5.80
2010,01,26,02,50,5.80
2010,01,26,02,51,5.80
2010,01,26,02,52,5.80
2010,01,26,02,53,5.80
2010,01,26,02,54,5.80
2010,01,26,02,55,5.80
2010,01,26,02,56,5.80
2010,01,26,02,57,5.80
2010,01,26,02,58,5.80
2010,01,26,02,59,5.80
2010,01,26,03,00,5.80
2010,01,26,03,01,5.80
2010,01,26,03,02,5.80
2010,01,26,03,03,5.80
2010,01,26,03,04,5.80
2010,01,26,03,05,5.80
2010,01,26,03,06,5.80
2010,01,26,03,07,5.80
2010,01,26,03,08,5.80
2010,01,26,03,09,5.80
2010,01,26,03,10,5.80
2010,01,26,03,11,5.80
2010,01,26,03,12,5.80
2010,01,26,03,13,5.80
2010,01,26,03,14,5.80
2010,01,26,03,15,5.80
2010,01,26,03,16,5.80
2010,01,26,03,17,5.80
2010,01,26,03,18,5.80
2010,01,26,03,19,5.80
2010,01,26,03,20,5.80
2010,01,26,03,21,5.80
2010,01,26,03,22,5.80
2010,01,26,03,23,5.80
2010,01,26,03,24,5.80
2010,01,26,03,25,5.80
2010,01,26,03,26,5.80
2010,01,26,03,27,5.70
2010,01,26,03,28,5.70
2010,01,26,03,29,5.70
2010,01,26,03,30,5.70
2010,01,26,03,31,5.70
2010,01,26,03,32,5.70
2010,01,26,03,33,5.70
2010,01,26,03,34,5.70
2010,01,26,03,35,5.70
2010,01,26,03,36,5.70
2010,01,26,03,37,5.70
2010,01,26,03,38,5.70
2010,01,26,03,39,5.70
2010,01,26,03,40,5.70
2010,01,26,03,41,5.70
2010,01,26,03,42,5.70
2010,01,26,03,43,5.70
2010,01,26,03,44,5.70
2010,01,26,03,45,5.70
2010,01,26,03,46,5.70
2010,01,26,03,47,5.70
2010,01,26,03,48,5.70
2010,01,26,03,49,5.70
2010,01,26,03,50,5.70
2010,01,26,03,51,5.70
2010,01,26,03,52,5.70
2010,01,26,03,53,5.70
2010,01,26,03,54,5.70
2010,01,26,03,55,5.70
2010,01,26,03,56,5.70
2010,01,26,03,57,5.70
2010,01,26,03,58,5.70
2010,01,26,03,59,5.70
2010,01,26,04,00,5.70
2010,01,26,04,01,5.70
2010,01,26,04,02,5.70
2010,01,26,04,03,5.70
2010,01,26,04,04,5.70
2010,01,26,04,05,5.70
2010,01,26,04,06,5.70
2010,01,26,04,07,5.70
2010,01,26,04,08,5.70
2010,01,26,04,09,5.70
2010,01,26,04,10,5.70
2010,01,26,04,11,5.70
2010,01,26,04,12,5.70
2010,01,26,04,13,5.70
2010,01,26,04,14,5.70
2010,01,26,04,15,5.70
2010,01,26,04,16,5.70
2010,01,26,04,17,5.70
2010,01,26,04,18,5.70
2010,01,26,04,19,5.70
2010,01,26,04,20,5.70
2010,01,26,04,21,5.70
2010,01,26,04,22,5.70
2010,01,26,04,23,5.70
2010,01,26,04,24,5.70
2010,01,26,04,25,5.70
2010,01,26,04,26,5.70
2010,01,26,04,27,5.70
2010,01,26,04,28,5.70
2010,01,26,04,29,5.70
2010,01,26,04,30,5.70
2010,01,26,04,31,5.70
2010,01,26,04,32,5.70
2010,01,26,04,33,5.70
2010,01,26,04,34,5.70
2010,01,26,04,35,5.70
2010,01,26,04,36,5.70
2010,01,26,08,33,4.90
2010,01,26,08,34,4.90
2010,01,26,08,35,4.90
2010,01,26,08,36,4.90
2010,01,26,08,37,4.90
2010,01,26,08,38,5.00
2010,01,26,08,39,5.10
2010,01,26,08,40,5.10
2010,01,26,08,41,5.10
2010,01,26,08,42,5.10
2010,01,26,08,43,5.10
2010,01,26,08,44,5.10
2010,01,26,08,45,5.10
2010,01,26,08,46,5.10
2010,01,26,08,47,5.10
2010,01,26,08,48,5.10
2010,01,26,08,49,5.10
2010,01,26,08,50,5.20
2010,01,26,08,51,5.20
2010,01,26,08,52,5.20
2010,01,26,08,53,5.20
2010,01,26,08,54,5.20
2010,01,26,08,55,5.20
2010,01,26,08,56,5.20
2010,01,26,08,57,5.20
2010,01,26,08,58,5.20
2010,01,26,08,59,5.20
2010,01,26,09,00,5.20
2010,01,26,09,01,5.20
2010,01,26,09,02,5.20
2010,01,26,09,03,5.30
2010,01,26,09,04,5.30
2010,01,26,09,05,5.30
2010,01,26,09,06,5.30
2010,01,26,09,07,5.30
2010,01,26,09,08,5.30
2010,01,26,09,09,5.30
2010,01,26,09,10,5.30
2010,01,26,09,11,5.30
2010,01,26,09,12,5.40
2010,01,26,09,13,5.40
2010,01,26,09,14,5.40
2010,01,26,09,15,5.40
2010,01,26,09,16,5.50
2010,01,26,09,17,5.50
2010,01,26,09,18,5.50
2010,01,26,09,19,5.50
2010,01,26,09,20,5.50
2010,01,26,09,21,5.50
2010,01,26,09,22,5.60
2010,01,26,09,23,5.60
2010,01,26,09,24,5.60
2010,01,26,09,25,5.60
2010,01,26,09,26,5.70
2010,01,26,09,27,5.70
2010,01,26,09,28,5.70
2010,01,26,09,29,5.70
2010,01,26,09,30,5.70
2010,01,26,09,31,5.70
2010,01,26,09,32,5.80
2010,01,26,09,33,5.80
2010,01,26,09,34,5.80
2010,01,26,09,35,5.90
2010,01,26,09,36,5.90
2010,01,26,09,37,5.90
2010,01,26,09,38,5.90
2010,01,26,09,39,6.00
2010,01,26,09,40,6.00
2010,01,26,09,41,6.00
2010,01,26,09,42,6.10
2010,01,26,09,43,6.10
2010,01,26,09,44,6.10
2010,01,26,09,45,6.10
2010,01,26,09,46,6.20
2010,01,26,09,47,6.20
2010,01,26,09,48,6.20
2010,01,26,09,49,6.20
2010,01,26,09,50,6.20
2010,01,26,09,51,6.20
2010,01,26,09,52,6.20
2010,01,26,09,53,6.20
2010,01,26,09,54,6.10
2010,01,26,09,55,6.10
2010,01,26,09,56,6.10
2010,01,26,09,57,6.10
2010,01,26,09,58,6.10
2010,01,26,09,59,6.10
2010,01,26,10,00,6.10
2010,01,26,10,01,6.20
2010,01,26,10,02,6.20
2010,01,26,10,03,6.20
2010,01,26,10,04,6.20
2010,01,26,10,05,6.20
2010,01,26,10,06,6.20
2010,01,26,10,07,6.20
2010,01,26,10,08,6.20
2010,01,26,10,09,6.10
2010,01,26,10,10,6.20
2010,01,26,10,11,6.20
2010,01,26,10,12,6.20
2010,01,26,10,13,6.20
2010,01,26,10,14,6.20
2010,01,26,10,15,6.20
2010,01,26,10,16,6.30
2010,01,26,10,17,6.30
2010,01,26,10,18,6.40
2010,01,26,10,19,6.40
2010,01,26,10,20,6.40
2010,01,26,10,21,6.40
2010,01,26,10,22,6.40
2010,01,26,10,23,6.40
2010,01,26,10,24,6.40
2010,01,26,10,25,6.50
2010,01,26,10,26,6.60
2010,01,26,10,27,6.60
2010,01,26,10,28,6.60
2010,01,26,10,29,6.60
2010,01,26,10,30,6.70
2010,01,26,10,31,6.70
2010,01,26,10,32,6.70
2010,01,26,10,33,6.80
2010,01,26,10,34,6.80
2010,01,26,10,35,6.80
2010,01,26,10,36,6.80
2010,01,26,10,37,6.80
2010,01,26,10,38,6.90
2010,01,26,10,39,7.00
2010,01,26,10,40,7.00
2010,01,26,10,41,7.00
2010,01,26,10,42,7.00
2010,01,26,10,43,7.00
2010,01,26,10,44,7.00
2010,01,26,10,45,7.00
2010,01,26,10,46,7.00
2010,01,26,10,47,7.00
2010,01,26,10,48,7.10
2010,01,26,10,49,7.00
2010,01,26,10,50,7.00
2010,01,26,10,51,7.00
2010,01,26,10,52,6.90
2010,01,26,10,53,6.90
2010,01,26,10,54,6.90
2010,01,26,10,55,6.90
2010,01,26,10,56,6.90
2010,01,26,10,57,6.90
2010,01,26,10,58,6.90
2010,01,26,10,59,6.90
2010,01,26,11,00,6.90
2010,01,26,11,01,6.90
2010,01,26,11,02,6.90
2010,01,26,11,03,6.90
2010,01,26,11,04,7.00
2010,01,26,11,05,7.00
2010,01,26,11,06,7.00
2010,01,26,11,07,7.00
2010,01,26,11,08,7.00
2010,01,26,11,09,6.90
2010,01,26,11,10,6.90
2010,01,26,11,11,6.90
2010,01,26,11,12,6.80
2010,01,26,11,13,6.90
2010,01,26,11,14,6.90
2010,01,26,11,15,7.00
2010,01,26,11,16,7.00
2010,01,26,11,17,7.10
2010,01,26,11,18,7.10
2010,01,26,11,19,7.10
2010,01,26,11,20,7.10
2010,01,26,11,21,7.20
2010,01,26,11,22,7.20
2010,01,26,11,23,7.20
2010,01,26,11,24,7.10
2010,01,26,11,25,7.10
2010,01,26,11,26,7.10
2010,01,26,11,27,7.10
2010,01,26,11,28,7.10
2010,01,26,11,29,7.10
2010,01,26,11,30,7.10
2010,01,26,11,31,7.10
2010,01,26,11,32,7.20
2010,01,26,11,33,7.20
2010,01,26,11,34,7.20
2010,01,26,11,35,7.20
2010,01,26,11,36,7.20
2010,01,26,11,37,7.20
2010,01,26,11,38,7.20
2010,01,26,11,39,7.30
2010,01,26,11,40,7.30
2010,01,26,11,41,7.30
2010,01,26,11,42,7.30
2010,01,26,11,43,7.30
2010,01,26,11,44,7.40
2010,01,26,11,45,7.40
2010,01,26,11,46,7.40
2010,01,26,11,47,7.40
2010,01,26,11,48,7.30
2010,01,26,11,49,7.30
2010,01,26,11,50,7.30
2010,01,26,11,51,7.40
2010,01,26,11,52,7.40
2010,01,26,11,53,7.40
2010,01,26,11,54,7.40
2010,01,26,11,55,7.40
2010,01,26,11,56,7.40
2010,01,26,11,57,7.40
2010,01,26,11,58,7.40
2010,01,26,11,59,7.40
2010,01,26,12,00,7.40
2010,01,26,12,01,7.40
2010,01,26,12,02,7.30
2010,01,26,12,03,7.30
2010,01,26,12,04,7.30
2010,01,26,12,05,7.30
2010,01,26,12,06,7.40
2010,01,26,12,07,7.40
2010,01,26,12,08,7.40
2010,01,26,12,09,7.40
2010,01,26,12,10,7.40
2010,01,26,12,11,7.50
2010,01,26,12,12,7.50
2010,01,26,12,13,7.60
2010,01,26,12,14,7.60
2010,01,26,12,15,7.70
2010,01,26,12,16,7.70
2010,01,26,12,17,7.70
2010,01,26,12,18,7.80
2010,01,26,12,19,7.80
2010,01,26,12,20,7.80
2010,01,26,12,21,7.80
2010,01,26,12,22,7.80
2010,01,26,12,23,7.90
2010,01,26,12,24,7.90
2010,01,26,12,25,8.00
2010,01,26,12,26,8.00
2010,01,26,12,27,8.00
2010,01,26,12,28,8.00
2010,01,26,12,29,8.00
2010,01,26,12,30,7.90
2010,01,26,12,31,7.90
2010,01,26,12,32,7.80
2010,01,26,12,33,7.80
2010,01,26,12,34,7.80
2010,01,26,12,35,7.80
2010,01,26,12,36,7.70
2010,01,26,12,37,7.70
2010,01,26,12,38,7.70
2010,01,26,12,39,7.70
2010,01,26,12,40,7.70
2010,01,26,12,41,7.70
2010,01,26,12,42,7.70
2010,01,26,12,43,7.80
2010,01,26,12,44,7.80
2010,01,26,12,45,7.80
2010,01,26,12,46,7.80
2010,01,26,12,47,7.80
2010,01,26,12,48,7.80
2010,01,26,12,49,7.80
2010,01,26,12,50,7.90
2010,01,26,12,51,7.90
2010,01,26,12,52,7.90
2010,01,26,12,53,7.90
2010,01,26,12,54,8.00
2010,01,26,12,55,8.00
2010,01,26,12,56,8.00
2010,01,26,12,57,8.00
2010,01,26,12,58,8.00
2010,01,26,12,59,7.90
2010,01,26,13,00,7.90
2010,01,26,13,01,7.90
2010,01,26,13,02,7.90
2010,01,26,13,03,7.90
2010,01,26,13,04,7.90
2010,01,26,13,05,7.90
2010,01,26,13,06,7.90
2010,01,26,13,07,7.80
2010,01,26,13,08,7.80
2010,01,26,13,09,7.80
2010,01,26,13,10,7.80
2010,01,26,13,11,7.70
2010,01,26,13,12,7.70
2010,01,26,13,13,7.70
2010,01,26,13,14,7.70
2010,01,26,13,15,7.70
2010,01,26,13,16,7.60
2010,01,26,13,17,7.60
2010,01,26,13,18,7.60
2010,01,26,13,19,7.60
2010,01,26,13,20,7.60
2010,01,26,13,21,7.50
2010,01,26,13,22,7.50
2010,01,26,13,23,7.50
2010,01,26,13,24,7.40
2010,01,26,13,25,7.40
2010,01,26,13,26,7.40
2010,01,26,13,27,7.40
2010,01,26,13,28,7.40
2010,01,26,13,29,7.40
2010,01,26,13,30,7.30
2010,01,26,13,31,7.30
2010,01,26,13,32,7.30
2010,01,26,13,33,7.30
2010,01,26,13,34,7.30
2010,01,26,13,35,7.30
2010,01,26,13,36,7.30
2010,01,26,13,37,7.30
2010,01,26,13,38,7.30
2010,01,26,13,39,7.30
2010,01,26,13,40,7.30
2010,01,26,13,41,7.30
2010,01,26,13,42,7.30
2010,01,26,13,43,7.30
2010,01,26,13,44,7.30
2010,01,26,13,45,7.30
2010,01,26,13,46,7.30
2010,01,26,13,47,7.30
2010,01,26,13,48,7.30
2010,01,26,13,49,7.30
2010,01,26,13,50,7.30
2010,01,26,13,51,7.30
2010,01,26,13,52,7.30
2010,01,26,13,53,7.30
2010,01,26,13,54,7.30
2010,01,26,13,55,7.30
2010,01,26,13,56,7.30
2010,01,26,13,57,7.40
2010,01,26,13,58,7.40
2010,01,26,13,59,7.40
2010,01,26,14,00,7.50
2010,01,26,14,01,7.50
2010,01,26,14,02,7.50
2010,01,26,14,03,7.50
2010,01,26,14,04,7.50
2010,01,26,14,05,7.50
2010,01,26,14,06,7.60
2010,01,26,14,07,7.60
2010,01,26,14,08,7.60
2010,01,26,14,09,7.60
2010,01,26,14,10,7.60
2010,01,26,14,11,7.60
2010,01,26,14,12,7.70
2010,01,26,14,13,7.70
2010,01,26,14,14,7.70
2010,01,26,14,15,7.70
2010,01,26,14,16,7.80
2010,01,26,14,17,7.80
2010,01,26,14,18,7.80
2010,01,26,14,19,7.80
2010,01,26,14,20,7.80
2010,01,26,14,21,7.80
2010,01,26,14,22,7.80
2010,01,26,14,23,7.90
2010,01,26,14,24,7.90
2010,01,26,14,25,7.90
2010,01,26,14,26,8.00
2010,01,26,14,27,8.00
2010,01,26,14,28,8.10
2010,01,26,14,29,8.10
2010,01,26,14,30,8.10
2010,01,26,14,31,8.10
2010,01,26,14,32,8.10
2010,01,26,14,33,8.10
2010,01,26,14,34,8.10
2010,01,26,14,35,8.10
2010,01,26,14,36,8.00
2010,01,26,14,37,8.00
2010,01,26,14,38,8.00
2010,01,26,14,39,8.00
2010,01,26,14,40,8.00
2010,01,26,14,41,8.00
2010,01,26,14,42,8.00
2010,01,26,14,43,8.00
2010,01,26,14,44,8.00
2010,01,26,14,45,8.00
2010,01,26,14,46,8.00
2010,01,26,14,47,8.00
2010,01,26,14,48,8.00
2010,01,26,14,49,8.00
2010,01,26,14,50,8.00
2010,01,26,14,51,8.00
2010,01,26,14,52,8.00
2010,01,26,14,53,8.00
2010,01,26,14,54,8.00
2010,01,26,14,55,8.00
2010,01,26,14,56,8.00
2010,01,26,14,57,8.00
2010,01,26,14,58,8.10
2010,01,26,14,59,8.10
2010,01,26,15,00,8.10
2010,01,26,15,01,8.20
2010,01,26,15,02,8.20
2010,01,26,15,03,8.20
2010,01,26,15,04,8.20
2010,01,26,15,05,8.20
2010,01,26,15,06,8.30
2010,01,26,15,07,8.30
2010,01,26,15,08,8.40
2010,01,26,15,09,8.40
2010,01,26,15,10,8.40
2010,01,26,15,11,8.50
2010,01,26,15,12,8.50
2010,01,26,15,13,8.50
2010,01,26,15,14,8.40
2010,01,26,15,15,8.40
2010,01,26,15,16,8.40
2010,01,26,15,17,8.30
2010,01,26,15,18,8.20
2010,01,26,15,19,8.20
2010,01,26,15,20,8.20
2010,01,26,15,21,8.20
2010,01,26,15,22,8.20
2010,01,26,15,23,8.20
2010,01,26,15,24,8.20
2010,01,26,15,25,8.20
2010,01,26,15,26,8.20
2010,01,26,15,27,8.20
2010,01,26,15,28,8.20
2010,01,26,15,29,8.20
2010,01,26,15,30,8.20
2010,01,26,15,31,8.20
2010,01,26,15,32,8.20
2010,01,26,15,33,8.20
2010,01,26,15,34,8.10
2010,01,26,15,35,8.00
2010,01,26,15,36,8.00
2010,01,26,15,37,8.00
2010,01,26,15,38,8.00
2010,01,26,15,39,7.90
2010,01,26,15,40,7.90
2010,01,26,15,41,7.90
2010,01,26,15,42,7.90
2010,01,26,15,43,7.90
2010,01,26,15,44,7.90
2010,01,26,15,45,7.80
2010,01,26,15,46,7.80
2010,01,26,15,47,7.80
2010,01,26,15,48,7.80
2010,01,26,15,49,7.80
2010,01,26,15,50,7.80
2010,01,26,15,51,7.80
2010,01,26,15,52,7.80
2010,01,26,15,53,7.90
2010,01,26,15,54,7.90
2010,01,26,15,55,7.90
2010,01,26,15,56,7.90
2010,01,26,15,57,7.90
2010,01,26,15,58,7.90
2010,01,26,15,59,7.90
2010,01,26,16,00,8.00
2010,01,26,16,01,8.00
2010,01,26,16,02,8.00
2010,01,26,16,03,8.00
2010,01,26,16,04,8.00
2010,01,26,16,05,8.00
2010,01,26,16,06,7.90
2010,01,26,16,07,7.90
2010,01,26,16,08,7.90
2010,01,26,16,09,7.90
2010,01,26,16,10,7.90
2010,01,26,16,11,8.00
2010,01,26,16,12,7.90
2010,01,26,16,13,7.90
2010,01,26,16,14,8.00
2010,01,26,16,15,8.00
2010,01,26,16,16,8.00
2010,01,26,16,17,8.00
2010,01,26,16,18,8.00
2010,01,26,16,19,8.00
2010,01,26,16,20,8.00
2010,01,26,16,21,8.00
2010,01,26,16,22,8.00
2010,01,26,16,23,8.00
2010,01,26,16,24,8.00
2010,01,26,16,25,8.00
2010,01,26,16,26,8.00
2010,01,26,16,27,8.00
2010,01,26,16,28,8.00
2010,01,26,16,29,8.00
2010,01,26,16,30,7.90
2010,01,26,16,31,7.90
2010,01,26,16,32,7.90
2010,01,26,16,33,7.80
2010,01,26,16,34,7.80
2010,01,26,16,35,7.80
2010,01,26,16,36,7.80
2010,01,26,16,37,7.80
2010,01,26,16,38,7.80
2010,01,26,16,39,7.80
2010,01,26,16,40,7.80
2010,01,26,16,41,7.80
2010,01,26,16,42,7.70
2010,01,26,16,43,7.70
2010,01,26,16,44,7.70
2010,01,26,16,45,7.70
2010,01,26,16,46,7.60
2010,01,26,16,47,7.60
2010,01,26,16,48,7.60
2010,01,26,16,49,7.60
2010,01,26,16,50,7.60
2010,01,26,16,51,7.60
2010,01,26,16,52,7.60
2010,01,26,16,53,7.60
2010,01,26,16,54,7.50
2010,01,26,16,55,7.50
2010,01,26,16,56,7.50
2010,01,26,16,57,7.50
2010,01,26,16,58,7.40
2010,01,26,16,59,7.40
2010,01,26,17,00,7.40
2010,01,26,17,01,7.40
2010,01,26,17,02,7.40
2010,01,26,17,03,7.30
2010,01,26,17,04,7.30
2010,01,26,17,05,7.30
2010,01,26,17,06,7.30
2010,01,26,17,07,7.30
2010,01,26,17,08,7.30
2010,01,26,17,09,7.30
2010,01,26,17,10,7.30
2010,01,26,17,11,7.30
2010,01,26,17,12,7.30
2010,01,26,17,13,7.30
2010,01,26,17,14,7.30
2010,01,26,17,15,7.30
2010,01,26,17,16,7.30
2010,01,26,17,17,7.30
2010,01,26,17,18,7.30
2010,01,26,17,19,7.20
2010,01,26,17,20,7.20
2010,01,26,17,21,7.20
2010,01,26,17,22,7.20
2010,01,26,17,23,7.20
2010,01,26,17,24,7.20
2010,01,26,17,25,7.10
2010,01,26,17,26,7.10
2010,01,26,17,27,7.10
2010,01,26,17,28,7.10
2010,01,26,17,29,7.10
2010,01,26,17,30,7.10
2010,01,26,17,31,7.10
2010,01,26,17,32,7.10
2010,01,26,17,33,7.00
2010,01,26,17,34,7.00
2010,01,26,17,35,7.00
2010,01,26,17,36,7.00
2010,01,26,17,37,7.00
2010,01,26,17,38,7.00
2010,01,26,17,39,7.00
2010,01,26,17,40,7.00
2010,01,26,17,41,7.00
2010,01,26,17,42,7.00
2010,01,26,17,43,6.90
2010,01,26,17,44,6.90
2010,01,26,17,45,6.90
2010,01,26,17,46,6.80
2010,01,26,17,47,6.80
2010,01,26,17,48,6.80
2010,01,26,17,49,6.80
2010,01,26,17,50,6.80
2010,01,26,17,51,6.70
2010,01,26,17,52,6.70
2010,01,26,17,53,6.60
2010,01,26,17,54,6.60
2010,01,26,17,55,6.60
2010,01,26,17,56,6.60
2010,01,26,17,57,6.60
2010,01,26,17,58,6.60
2010,01,26,17,59,6.60
2010,01,26,18,00,6.50
2010,01,26,18,01,6.40
2010,01,26,18,02,6.40
2010,01,26,18,03,6.40
2010,01,26,18,04,6.40
2010,01,26,18,05,6.40
2010,01,26,18,06,6.40
2010,01,26,18,07,6.40
2010,01,26,18,08,6.40
2010,01,26,18,09,6.40
2010,01,26,18,10,6.40
2010,01,26,18,11,6.40
2010,01,26,18,12,6.30
2010,01,26,18,13,6.30
2010,01,26,18,14,6.30
2010,01,26,18,15,6.30
2010,01,26,18,16,6.30
2010,01,26,18,17,6.20
2010,01,26,18,18,6.20
2010,01,26,18,19,6.20
2010,01,26,18,20,6.20
2010,01,26,18,21,6.20
2010,01,26,18,22,6.20
2010,01,26,18,23,6.20
2010,01,26,18,24,6.20
2010,01,26,18,25,6.20
2010,01,26,18,26,6.20
2010,01,26,18,27,6.10
2010,01,26,18,28,6.10
2010,01,26,18,29,6.10
2010,01,26,18,30,6.10
2010,01,26,18,31,6.10
2010,01,26,18,32,6.10
2010,01,26,18,33,6.10
2010,01,26,18,34,6.10
2010,01,26,18,35,6.10
2010,01,26,18,36,6.10
2010,01,26,18,37,6.10
2010,01,26,18,38,6.10
2010,01,26,18,39,6.10
2010,01,26,18,40,6.10
2010,01,26,18,41,6.10
2010,01,26,18,42,6.10
2010,01,26,18,43,6.10
2010,01,26,18,44,6.10
2010,01,26,18,45,6.10
2010,01,26,18,46,6.20
2010,01,26,18,47,6.20
2010,01,26,18,48,6.20
2010,01,26,18,49,6.20
2010,01,26,18,50,6.20
2010,01,26,18,51,6.20
2010,01,26,18,52,6.10
2010,01,26,18,53,6.10
2010,01,26,18,54,6.10
2010,01,26,18,55,6.10
2010,01,26,18,56,6.10
2010,01,26,18,57,6.10
2010,01,26,18,58,6.10
2010,01,26,18,59,6.10
2010,01,26,19,00,6.10
2010,01,26,19,01,6.10
2010,01,26,19,02,6.10
2010,01,26,19,03,6.10
2010,01,26,19,04,6.20
2010,01,26,19,05,6.20
2010,01,26,19,06,6.20
2010,01,26,19,07,6.30
2010,01,26,19,08,6.30
2010,01,26,19,09,6.40
2010,01,26,19,10,6.40
2010,01,26,19,11,6.40
2010,01,26,19,12,6.40
2010,01,26,19,13,6.30
2010,01,26,19,14,6.30
2010,01,26,19,15,6.30
2010,01,26,19,16,6.30
2010,01,26,19,17,6.30
2010,01,26,19,18,6.30
2010,01,26,19,19,6.30
2010,01,26,19,20,6.40
2010,01,26,19,21,6.40
2010,01,26,19,22,6.40
2010,01,26,19,23,6.40
2010,01,26,19,24,6.40
2010,01,26,19,25,6.40
2010,01,26,19,26,6.50
2010,01,26,19,27,6.40
2010,01,26,19,28,6.40
2010,01,26,19,29,6.40
2010,01,26,19,30,6.40
2010,01,26,19,31,6.40
2010,01,26,19,32,6.40
2010,01,26,19,33,6.40
2010,01,26,19,34,6.40
2010,01,26,19,35,6.40
2010,01,26,19,36,6.40
2010,01,26,19,37,6.50
2010,01,26,19,38,6.60
2010,01,26,19,39,6.60
2010,01,26,19,40,6.60
2010,01,26,19,41,6.60
2010,01,26,19,42,6.60
2010,01,26,19,43,6.60
2010,01,26,19,44,6.60
2010,01,26,19,45,6.60
2010,01,26,19,46,6.60
2010,01,26,19,47,6.50
2010,01,26,19,48,6.40
2010,01,26,19,49,6.40
2010,01,26,19,50,6.40
2010,01,26,19,51,6.40
2010,01,26,19,52,6.40
2010,01,26,19,53,6.30
2010,01,26,19,54,6.30
2010,01,26,19,55,6.30
2010,01,26,19,56,6.20
2010,01,26,19,57,6.20
2010,01,26,19,58,6.20
2010,01,26,19,59,6.20
2010,01,26,20,00,6.10
2010,01,26,20,01,6.10
2010,01,26,20,02,6.10
2010,01,26,20,03,6.10
2010,01,26,20,04,6.00
2010,01,26,20,05,6.00
2010,01,26,20,06,6.00
2010,01,26,20,07,6.00
2010,01,26,20,08,6.00
2010,01,26,20,09,6.00
2010,01,26,20,10,6.00
2010,01,26,20,11,5.90
2010,01,26,20,12,5.90
2010,01,26,20,13,5.90
2010,01,26,20,14,5.80
2010,01,26,20,15,5.80
2010,01,26,20,16,5.80
2010,01,26,20,17,5.80
2010,01,26,20,18,5.80
2010,01,26,20,19,5.80
2010,01,26,20,20,5.80
2010,01,26,20,21,5.80
2010,01,26,20,22,5.80
2010,01,26,20,23,5.80
2010,01,26,20,24,5.90
2010,01,26,20,25,5.90
2010,01,26,20,26,6.00
2010,01,26,20,27,6.00
2010,01,26,20,28,6.00
2010,01,26,20,29,6.10
2010,01,26,20,30,6.10
2010,01,26,20,31,6.10
2010,01,26,20,32,6.10
2010,01,26,20,33,6.10
2010,01,26,20,34,6.10
2010,01,26,20,35,6.10
2010,01,26,20,36,6.10
2010,01,26,20,37,6.10
2010,01,26,20,38,6.10
2010,01,26,20,39,6.20
2010,01,26,20,40,6.20
2010,01,26,20,41,6.20
2010,01,26,20,42,6.20
2010,01,26,20,43,6.20
2010,01,26,20,44,6.20
2010,01,26,20,45,6.20
2010,01,26,20,46,6.20
2010,01,26,20,47,6.20
2010,01,26,20,48,6.20
2010,01,26,20,49,6.20
2010,01,26,20,50,6.20
2010,01,26,20,51,6.20
2010,01,26,20,52,6.20
2010,01,26,20,53,6.20
2010,01,26,20,54,6.20
2010,01,26,20,55,6.20
2010,01,26,20,56,6.20
2010,01,26,20,57,6.20
2010,01,26,20,58,6.20
2010,01,26,20,59,6.20
2010,01,26,21,00,6.20
2010,01,26,21,01,6.20
2010,01,26,21,02,6.20
2010,01,26,21,03,6.20
2010,01,26,21,04,6.20
2010,01,26,21,05,6.20
2010,01,26,21,06,6.20
2010,01,26,21,07,6.20
2010,01,26,21,08,6.20
2010,01,26,21,09,6.20
2010,01,26,21,10,6.20
2010,01,26,21,11,6.20
2010,01,26,21,12,6.20
2010,01,26,21,13,6.20
2010,01,26,21,14,6.30
2010,01,26,21,15,6.30
2010,01,26,21,16,6.30
2010,01,26,21,17,6.30
2010,01,26,21,18,6.30
2010,01,26,21,19,6.40
2010,01,26,21,20,6.40
2010,01,26,21,21,6.40
2010,01,26,21,22,6.40
2010,01,26,21,23,6.40
2010,01,26,21,24,6.40
2010,01,26,21,25,6.40
2010,01,26,21,26,6.40
2010,01,26,21,27,6.40
2010,01,26,21,28,6.40
2010,01,26,21,29,6.40
2010,01,26,21,30,6.40
2010,01,26,21,31,6.40
2010,01,26,21,32,6.40
2010,01,26,21,33,6.50
2010,01,26,21,34,6.60
2010,01,26,21,35,6.60
2010,01,26,21,36,6.60
2010,01,26,21,37,6.60
2010,01,26,21,38,6.60
2010,01,26,21,39,6.60
2010,01,26,21,40,6.60
2010,01,26,21,41,6.60
2010,01,26,21,42,6.60
2010,01,26,21,43,6.60
2010,01,26,21,44,6.60
2010,01,26,21,45,6.60
2010,01,26,21,46,6.60
2010,01,26,21,47,6.60
2010,01,26,21,48,6.60
2010,01,26,21,49,6.60
2010,01,26,21,50,6.60
2010,01,26,21,51,6.60
2010,01,26,21,52,6.60
2010,01,26,21,53,6.60
2010,01,26,21,54,6.60
2010,01,26,21,55,6.60
2010,01,26,21,56,6.60
2010,01,26,21,57,6.60
2010,01,26,21,58,6.60
2010,01,26,21,59,6.60
2010,01,26,22,00,6.60
2010,01,26,22,01,6.60
2010,01,26,22,02,6.60